Location: Saint Louis
(38.6272°N, 90.1978°W)
Time: 09:01:08
(UTC-05:00)

ISS - Pass Details

Date: 19 August 2013
Orbit: 401 x 404 km, 51.6° (Epoch: 29 July)

Event Time Altitude Azimuth Distance (km) Brightness Sun altitude
Rises 22:11:02 0° 315° (NW) 2,318 1.9 -24.9°
Reaches altitude 10° 22:13:16 10° 326° (NNW) 1,459 0.5 -25.2°
Enters shadow 22:14:57 23° 350° (N) 920 -1.0 -25.5°
